Погода в Ноиде

Индия     28°34′24″N   77°21′18″E
темп.,
°C
ветер,
м/с
пор.,
м/с
влажн.,
%
обл.,
%
осадки,
мм/ч
давл.,
гПа
погр.,
м
24 июня, чт
чт2423:30+36вюв35242 0.0 1001333
02:30+34юв37320 0.0 1001366
05:30+32ююв37430 0.0 1001387
08:30+34ююв45460 0.0 1002896
11:30+39ю23270 0.0 10012601
14:30+43ссв341618 0.0 9983948
17:30+43ссз151210 0.0 9954119
20:30+40юз451899 0.0 9981094
25 июня, пт
пт2523:30+39с25182 0.0 998388
02:30+37ссз592091 0.0 997710
05:30+36сз59222 0.0 998778
08:30+37зсз710290 0.0 10001403
11:30+40сз66220 0.0 9992636
14:30+43сз561599 0.0 9964860
17:30+39ююз7822100 0.0 996592
20:30+39ююз251926 0.0 997499
26 июня, сб
сб2623:30+38з5102332 0.0 997938
02:30+37зсз5102786 0.1 997805
05:30+36зсз6102625 0.1 999941
08:30+37зсз7102813 0.0 10011107
11:30+41сз55213 0.0 10002089
14:30+43зсз341715 0.0 9984351
17:30+40зсз9101979 0.0 997644
20:30+41зсз2616100 0.1 9981034
27 июня, вс
вс2723:30+39з4721100 0.1 999757
02:30+38зсз262390 0.0 1000587
05:30+36ссв23275 0.1 1001665
08:30+38зсз45230 0.0 10031419
11:30+41сз44202 0.0 10022173
14:30+44сз351638 0.0 9994064
17:30+43з7617100 0.0 9983564
20:30+40зюз6823100 0.0 10001004
28 июня, пн
пн2823:30+39з5102551 0.0 1000797
02:30+38сз382616 0.0 999787
05:30+37зсз252670 0.0 1000951
08:30+39зсз57235 0.0 10011562
11:30+41зсз67203 0.0 10012089
14:30+44зсз56160 0.0 9983773
17:30+44зсз66160 0.0 9963904
20:30+42з58185 0.0 9971405